Montevideo, MN

8:31 PM CDT on April 26, 2017 (GMT -0500)
Montevideo-Chippewa County

Weather History for KMVE - January, 2014

Change the Weather History Date:

Saturday, January 11, 2014

  Actual Average Record
Temperature  
Mean Temperature 28 °F -  
Max Temperature 37 °F 17 °F 51 °F (1990)
Min Temperature 19 °F -1 °F -31 °F (1977)
Degree Days  
Heating Degree Days 37    
Moisture  
Dew Point 24 °F    
Average Humidity 89    
Maximum Humidity 100    
Minimum Humidity 70    
Precipitation  
Precipitation 0.00 in - - ()
Sea Level Pressure  
Sea Level Pressure 29.62 in    
Wind  
Wind Speed 9 mph (NW)    
Max Wind Speed 23 mph    
Max Gust Speed 29 mph    
Visibility 10 miles    
Events      
Averages and records for this station are not official NWS values.
T = Trace of Precipitation, MM = Missing Value Source: NWS Daily Summary

Daily Weather History Graph

Daily Weather History Graph

Search for Another Location

Airport or City:

Trip Planner

Search our weather history database for the weather conditions in past years. The results will help you decide how hot, cold, wet, or windy it might be!

Date:

Astronomy

Jan. 11, 2014 Rise Set
Actual Time 7:59 AM CST 5:02 PM CST
Civil Twilight 7:26 AM CST 5:35 PM CST
Nautical Twilight 6:49 AM CST 6:12 PM CST
Astronomical Twilight 6:14 AM CST 6:47 PM CST
Moon 1:49 PM CST (1/11) 4:02 AM CST (1/11)
Length of Visible Light 10h 09m
Length of Day
9h 03m
Waxing Gibbous, 83% of the Moon is Illuminated
Jan 11
Waxing Gibbous
Jan 15
Full
Jan 23
Last Quarter
Jan 30
New
Feb 6
First Quarter

Hourly Weather History & Observations

Time (CST) Temp. Windchill Dew Point Humidity Pressure Visibility Wind Dir Wind Speed Gust Speed Precip Events Conditions
12:14 AM 21.2 °F 13.6 °F 21.2 °F 100% 29.51 in 10.0 mi WNW 5.8 mph - N/A   Clear
12:34 AM 21.2 °F 11.7 °F 21.2 °F 100% 29.51 in 10.0 mi NW 8.1 mph - N/A   Clear
12:54 AM 21.2 °F 12.6 °F 21.2 °F 100% 29.52 in 10.0 mi WNW 6.9 mph - N/A   Clear
1:13 AM 21.2 °F 12.6 °F 21.2 °F 100% 29.52 in 10.0 mi WNW 6.9 mph - N/A   Clear
1:34 AM 21.2 °F 12.6 °F 21.2 °F 100% 29.52 in 10.0 mi NW 6.9 mph - N/A   Clear
1:54 AM 21.2 °F 13.6 °F 21.2 °F 100% 29.52 in 10.0 mi NW 5.8 mph - N/A   Clear
2:14 AM 21.2 °F 13.6 °F 19.4 °F 93% 29.52 in 10.0 mi NW 5.8 mph - N/A   Clear
2:34 AM 19.4 °F 10.4 °F 19.4 °F 100% 29.52 in 10.0 mi NW 6.9 mph - N/A   Clear
2:54 AM 19.4 °F 10.4 °F 19.4 °F 100% 29.53 in 10.0 mi NW 6.9 mph - N/A   Clear
3:14 AM 19.4 °F 11.5 °F 19.4 °F 100% 29.53 in 10.0 mi NW 5.8 mph - N/A   Clear
3:33 AM 19.4 °F 10.4 °F 17.6 °F 93% 29.53 in 10.0 mi NW 6.9 mph - N/A   Clear
3:54 AM 19.4 °F 10.4 °F 17.6 °F 93% 29.54 in 10.0 mi NW 6.9 mph - N/A   Mostly Cloudy
4:14 AM 21.2 °F 10.9 °F 19.4 °F 93% 29.55 in 10.0 mi NNW 9.2 mph - N/A   Overcast
4:34 AM 21.2 °F 10.9 °F 21.2 °F 100% 29.55 in 10.0 mi NNW 9.2 mph - N/A   Overcast
4:54 AM 23.0 °F 12.4 °F 21.2 °F 93% 29.55 in 10.0 mi NNW 10.4 mph 17.3 mph N/A   Overcast
5:14 AM 23.0 °F 13.1 °F 21.2 °F 93% 29.56 in 10.0 mi NNW 9.2 mph - N/A   Overcast
5:34 AM 24.8 °F 12.9 °F 21.2 °F 86% 29.56 in 10.0 mi North 13.8 mph 17.3 mph N/A   Overcast
5:54 AM 24.8 °F 14.0 °F 23.0 °F 93% 29.58 in 7.0 mi NNW 11.5 mph - N/A   Overcast
6:14 AM 26.6 °F 13.1 °F 24.8 °F 93% 29.57 in 10.0 mi North 19.6 mph 28.8 mph N/A   Overcast
6:34 AM 24.8 °F 9.6 °F 24.8 °F 100% 29.59 in 10.0 mi North 23.0 mph 28.8 mph N/A   Overcast
6:54 AM 24.8 °F 11.9 °F 24.8 °F 100% 29.60 in 10.0 mi North 16.1 mph 23.0 mph N/A   Overcast
7:14 AM 24.8 °F 11.9 °F 24.8 °F 100% 29.61 in 10.0 mi North 16.1 mph - N/A   Overcast
7:34 AM 24.8 °F 13.4 °F 24.8 °F 100% 29.61 in 10.0 mi North 12.7 mph 20.7 mph N/A   Overcast
7:54 AM 24.8 °F 12.9 °F 24.8 °F 100% 29.62 in 10.0 mi NNW 13.8 mph - N/A   Overcast
8:14 AM 26.6 °F 16.2 °F 24.8 °F 93% 29.63 in 10.0 mi North 11.5 mph 17.3 mph N/A   Overcast
8:34 AM 26.6 °F 14.7 °F 24.8 °F 93% 29.64 in 10.0 mi North 15.0 mph 23.0 mph N/A   Overcast
8:53 AM 26.6 °F 12.4 °F 24.8 °F 93% 29.64 in 10.0 mi North 21.9 mph 26.5 mph N/A   Overcast
9:14 AM 26.6 °F 15.7 °F 24.8 °F 93% 29.65 in 10.0 mi NNW 12.7 mph - N/A   Overcast
9:34 AM 26.6 °F 14.7 °F 24.8 °F 93% 29.66 in 10.0 mi North 15.0 mph 25.3 mph N/A   Overcast
9:53 AM 26.6 °F 16.2 °F 24.8 °F 93% 29.67 in 10.0 mi North 11.5 mph - N/A   Overcast
10:14 AM 26.6 °F 14.7 °F 24.8 °F 93% 29.68 in 10.0 mi North 15.0 mph 20.7 mph N/A   Overcast
10:34 AM 26.6 °F 13.4 °F 24.8 °F 93% 29.69 in 10.0 mi North 18.4 mph 23.0 mph N/A   Overcast
10:54 AM 28.4 °F 15.8 °F 26.6 °F 93% 29.69 in 10.0 mi North 18.4 mph 25.3 mph N/A   Overcast
11:14 AM 28.4 °F 18.0 °F 26.6 °F 93% 29.69 in 10.0 mi North 12.7 mph - N/A   Overcast
11:33 AM 28.4 °F 16.2 °F 26.6 °F 93% 29.69 in 7.0 mi North 17.3 mph 21.9 mph N/A   Overcast
11:54 AM 30.2 °F 19.3 °F 28.4 °F 93% 29.70 in 10.0 mi NNW 15.0 mph 19.6 mph N/A   Overcast
12:14 PM 30.2 °F 21.3 °F 28.4 °F 93% 29.69 in 10.0 mi NNW 10.4 mph - N/A   Overcast
12:34 PM 30.2 °F 20.8 °F 28.4 °F 93% 29.68 in 10.0 mi North 11.5 mph 17.3 mph N/A   Overcast
12:54 PM 33.8 °F 26.4 °F 30.2 °F 87% 29.68 in 10.0 mi NNW 9.2 mph 16.1 mph N/A   Mostly Cloudy
1:14 PM 35.6 °F 28.6 °F 28.4 °F 75% 29.67 in 10.0 mi NW 9.2 mph 18.4 mph N/A   Scattered Clouds
1:34 PM 35.6 °F 29.9 °F 28.4 °F 75% 29.66 in 10.0 mi NNW 6.9 mph - N/A   Clear
1:54 PM 37.4 °F 32.1 °F 28.4 °F 70% 29.66 in 10.0 mi NW 6.9 mph - N/A   Clear
2:14 PM 37.4 °F 30.3 °F 28.4 °F 70% 29.67 in 10.0 mi NW 10.4 mph 17.3 mph N/A   Clear
2:34 PM 37.4 °F 31.4 °F 28.4 °F 70% 29.67 in 10.0 mi WNW 8.1 mph - N/A   Clear
2:54 PM 37.4 °F 31.4 °F 28.4 °F 70% 29.67 in 10.0 mi WNW 8.1 mph - N/A   Clear
3:14 PM 35.6 °F 29.2 °F 26.6 °F 70% 29.67 in 10.0 mi WNW 8.1 mph - N/A   Clear
3:34 PM 35.6 °F 28.0 °F 28.4 °F 75% 29.67 in 10.0 mi WNW 10.4 mph - N/A   Clear
3:54 PM 35.6 °F 29.2 °F 26.6 °F 70% 29.67 in 10.0 mi WNW 8.1 mph - N/A   Clear
4:14 PM 35.6 °F 29.9 °F 26.6 °F 70% 29.66 in 10.0 mi West 6.9 mph - N/A   Clear
4:34 PM 33.8 °F 27.0 °F 26.6 °F 75% 29.65 in 10.0 mi West 8.1 mph - N/A   Clear
4:54 PM 32.0 °F 24.2 °F 24.8 °F 75% 29.67 in 10.0 mi West 9.2 mph - N/A   Clear
5:14 PM 30.2 °F 21.9 °F 24.8 °F 80% 29.67 in 10.0 mi West 9.2 mph - N/A   Clear
5:33 PM 28.4 °F 20.4 °F 24.8 °F 86% 29.67 in 10.0 mi West 8.1 mph - N/A   Clear
5:54 PM 28.4 °F 21.2 °F 24.8 °F 86% 29.68 in 10.0 mi West 6.9 mph - N/A   Clear
6:14 PM 28.4 °F 19.7 °F 24.8 °F 86% 29.67 in 10.0 mi West 9.2 mph - N/A   Clear
6:33 PM 28.4 °F 19.7 °F 24.8 °F 86% 29.67 in 10.0 mi West 9.2 mph - N/A   Clear
6:54 PM 26.6 °F 18.2 °F 23.0 °F 86% 29.66 in 10.0 mi West 8.1 mph - N/A   Clear
7:14 PM 24.8 °F 19.1 °F 21.2 °F 86% 29.65 in 10.0 mi West 4.6 mph - N/A   Clear
7:34 PM 24.8 °F 19.1 °F 21.2 °F 86% 29.64 in 10.0 mi WSW 4.6 mph - N/A   Clear
7:54 PM 24.8 °F 17.9 °F 19.4 °F 80% 29.65 in 10.0 mi WSW 5.8 mph - N/A   Clear
8:14 PM 24.8 °F 19.1 °F 19.4 °F 80% 29.65 in 10.0 mi SW 4.6 mph - N/A   Clear
8:34 PM 23.0 °F 15.8 °F 19.4 °F 86% 29.64 in 10.0 mi SW 5.8 mph - N/A   Clear
8:54 PM 23.0 °F 17.0 °F 21.2 °F 93% 29.63 in 10.0 mi SSW 4.6 mph - N/A   Clear
9:14 PM 23.0 °F 17.0 °F 21.2 °F 93% 29.63 in 10.0 mi SSW 4.6 mph - N/A   Clear
9:34 PM 23.0 °F 15.8 °F 21.2 °F 93% 29.62 in 10.0 mi SSW 5.8 mph - N/A   Clear
9:54 PM 23.0 °F 15.8 °F 21.2 °F 93% 29.61 in 10.0 mi SSW 5.8 mph - N/A   Clear
10:14 PM 24.8 °F 17.9 °F 21.2 °F 86% 29.60 in 10.0 mi SSW 5.8 mph - N/A   Clear
10:34 PM 24.8 °F 16.9 °F 21.2 °F 86% 29.58 in 10.0 mi SSW 6.9 mph - N/A   Clear
10:53 PM 24.8 °F 16.9 °F 21.2 °F 86% 29.56 in 10.0 mi South 6.9 mph - N/A   Clear
11:14 PM 24.8 °F 16.1 °F 21.2 °F 86% 29.55 in 10.0 mi South 8.1 mph - N/A   Clear
11:34 PM 24.8 °F 16.9 °F 23.0 °F 93% 29.53 in 10.0 mi South 6.9 mph - N/A   Clear
11:53 PM 26.6 °F 17.5 °F 23.0 °F 86% 29.53 in 10.0 mi South 9.2 mph - N/A   Clear